This is the latest recevied weather packets stored in our database for station/object SR4DIG-13. If no packets are shown the sender has not sent any weather packets the latest 10 day(s).
| Time | Temp. | Humidity | Pressure | Rain* | Wind** | Luminosity | Snow |
|---|---|---|---|---|---|---|---|
| 1788340213 | 23.89° C | 55% | 1017.1 hPa | 0 mm | - | - | - |
| 1788339912 | 24.44° C | 55% | 1017.1 hPa | 0 mm | - | - | - |
| 1788339611 | 25° C | 54% | 1017.1 hPa | 0 mm | - | - | - |
| 1788339311 | 25° C | 57% | 1017.1 hPa | 0 mm | - | - | - |
| 1788339010 | 23.33° C | 60% | 1016.9 hPa | 0 mm | - | - | - |
| 1788338709 | 22.78° C | 61% | 1016.9 hPa | 0 mm | - | - | - |
| 1788338408 | 22.22° C | 62% | 1016.9 hPa | 0 mm | - | - | - |
| 1788338107 | 22.22° C | 61% | 1016.9 hPa | 0 mm | - | - | - |
| 1788337806 | 21.67° C | 63% | 1016.9 hPa | 0 mm | - | - | - |
| 1788337313 | 21.11° C | 64% | 1016.8 hPa | 0 mm | - | - | - |
| 1788337012 | 21.11° C | 63% | 1016.8 hPa | 0 mm | - | - | - |
| 1788336711 | 21.11° C | 61% | 1016.9 hPa | 0 mm | - | - | - |
| 1788336410 | 21.67° C | 60% | 1016.9 hPa | 0 mm | - | - | - |
| 1788336109 | 22.22° C | 60% | 1016.9 hPa | 0 mm | - | - | - |
| 1788335809 | 22.78° C | 60% | 1016.9 hPa | 0 mm | - | - | - |
| 1788335508 | 23.33° C | 59% | 1016.7 hPa | 0 mm | - | - | - |
| 1788335207 | 23.33° C | 60% | 1016.6 hPa | 0 mm | - | - | - |
| 1788334906 | 22.78° C | 59% | 1016.5 hPa | 0 mm | - | - | - |
| 1788334605 | 23.33° C | 59% | 1016.6 hPa | 0 mm | - | - | - |
| 1788334304 | 23.33° C | 59% | 1016.6 hPa | 0 mm | - | - | - |
| 1788334003 | 23.89° C | 58% | 1016.4 hPa | 0 mm | - | - | - |
| 1788333702 | 23.89° C | 59% | 1016.5 hPa | 0 mm | - | - | - |
| 1788333401 | 23.89° C | 59% | 1016.4 hPa | 0 mm | - | - | - |
| 1788333100 | 23.33° C | 60% | 1016.5 hPa | 0 mm | - | - | - |
| 1788332799 | 23.33° C | 62% | 1016.5 hPa | 0 mm | - | - | - |
* Rain latest hour (hover to see other rain measurements)
** Current wind speed in m/s (hover to see current wind gust speed)